| time (UTC) | temp C | wind direction | speed KPH | gust KPH | rain 1hr cm | rain 24hr cm | rain mn cm | humidity % | barometer mb |
| 20260503053415 | 13 | 56 | 0.0 | 0.0 | 0.00 | 0.00 | 0.00 | 44 | 956.1 |
| 20260503052911 | 13 | 45 | 0.0 | 0.0 | 0.00 | 0.00 | 0.00 | 43 | 955.9 |
| 20260503052408 | 13 | 54 | 0.0 | 0.0 | 0.00 | 0.00 | 0.00 | 42 | 956.0 |
| 20260503051904 | 14 | 55 | 0.0 | 0.0 | 0.00 | 0.00 | 0.00 | 42 | 956.2 |
| 20260503051400 | 14 | 25 | 0.0 | 0.0 | 0.00 | 0.00 | 0.00 | 43 | 956.5 |
| 20260503050858 | 13 | 36 | 0.0 | 0.0 | 0.00 | 0.00 | 0.00 | 45 | 956.3 |
| 20260503050354 | 12 | 48 | 0.0 | 0.0 | 0.00 | 0.00 | 0.00 | 46 | 956.1 |
| 20260503045852 | 12 | 49 | 0.0 | 0.0 | 0.00 | 0.00 | 0.00 | 46 | 956.1 |
| 20260503045349 | 12 | 41 | 0.0 | 0.0 | 0.00 | 0.00 | 0.00 | 44 | 956.3 |
| 20260503044845 | 11 | 31 | 0.0 | 0.0 | 0.00 | 0.00 | 0.00 | 43 | 956.0 |
| 20260503044342 | 12 | 36 | 0.0 | 0.0 | 0.00 | 0.00 | 0.00 | 43 | 956.2 |
| 20260503043839 | 12 | 37 | 0.0 | 0.0 | 0.00 | 0.00 | 0.00 | 42 | 956.1 |
| 20260503043336 | 12 | 34 | 0.0 | 0.0 | 0.00 | 0.00 | 0.00 | 41 | 956.1 |
| 20260503042832 | 12 | 38 | 0.0 | 0.0 | 0.00 | 0.00 | 0.00 | 40 | 955.8 |
| 20260503042329 | 13 | 42 | 0.0 | 0.0 | 0.00 | 0.00 | 0.00 | 41 | 955.9 |
| 20260503041825 | 13 | 39 | 0.0 | 0.0 | 0.00 | 0.00 | 0.00 | 40 | 955.9 |
| 20260503041323 | 13 | 42 | 0.0 | 0.0 | 0.00 | 0.00 | 0.00 | 40 | 955.7 |
| 20260503040821 | 13 | 61 | 0.0 | 0.0 | 0.00 | 0.00 | 0.00 | 40 | 955.9 |
| 20260503040318 | 14 | 60 | 0.0 | 0.0 | 0.00 | 0.00 | 0.00 | 40 | 956.0 |
| 20260503035815 | 14 | 46 | 0.0 | 0.0 | 0.00 | 0.00 | 0.00 | 39 | 956.0 |
| 20260503035312 | 14 | 45 | 0.0 | 0.0 | 0.00 | 0.00 | 0.00 | 37 | 956.0 |
| 20260503034809 | 14 | 39 | 0.0 | 0.0 | 0.00 | 0.00 | 0.00 | 37 | 956.1 |
| 20260503034306 | 15 | 36 | 0.0 | 0.0 | 0.00 | 0.00 | 0.00 | 37 | 956.2 |
| 20260503033803 | 15 | 42 | 0.0 | 0.0 | 0.00 | 0.00 | 0.00 | 35 | 956.0 |
| 20260503033301 | 15 | 41 | 0.0 | 0.0 | 0.00 | 0.00 | 0.00 | 33 | 956.2 |
| 20260503032759 | 16 | 40 | 0.0 | 0.0 | 0.00 | 0.00 | 0.00 | 32 | 956.0 |
| 20260503032257 | 16 | 45 | 0.0 | 0.0 | 0.00 | 0.00 | 0.00 | 32 | 956.0 |
| 20260503031754 | 17 | 53 | 0.0 | 0.0 | 0.00 | 0.00 | 0.00 | 31 | 955.9 |
| 20260503031252 | 17 | 48 | 0.0 | 0.0 | 0.00 | 0.00 | 0.00 | 30 | 955.9 |
| 20260503030748 | 17 | 45 | 0.0 | 0.0 | 0.00 | 0.00 | 0.00 | 30 | 955.7 |
| 20260503030245 | 17 | 45 | 0.0 | 0.0 | 0.00 | 0.00 | 0.00 | 29 | 955.9 |
| 20260503025741 | 17 | 47 | 0.0 | 0.0 | 0.00 | 0.00 | 0.00 | 28 | 955.8 |
| 20260503025239 | 18 | 40 | 0.0 | 0.0 | 0.00 | 0.00 | 0.00 | 28 | 955.9 |
| 20260503024736 | 18 | 37 | 0.0 | 0.0 | 0.00 | 0.00 | 0.00 | 27 | 956.0 |
| 20260503024233 | 18 | 48 | 0.0 | 0.0 | 0.00 | 0.00 | 0.00 | 27 | 955.9 |
| 20260503023730 | 18 | 20 | 0.0 | 0.0 | 0.00 | 0.00 | 0.00 | 26 | 956.0 |
| 20260503023227 | 19 | 35 | 0.0 | 0.0 | 0.00 | 0.00 | 0.00 | 26 | 955.8 |
| 20260503022722 | 19 | 74 | 0.0 | 0.0 | 0.00 | 0.00 | 0.00 | 25 | 955.8 |
| 20260503022217 | 20 | 187 | 1.6 | 1.6 | 0.00 | 0.00 | 0.00 | 25 | 956.0 |
| 20260503021714 | 20 | 29 | 0.0 | 0.0 | 0.00 | 0.00 | 0.00 | 25 | 955.8 |
| 20260503021210 | 20 | 348 | 0.0 | 1.6 | 0.00 | 0.00 | 0.00 | 24 | 956.0 |
| 20260503020708 | 20 | 339 | 1.6 | 3.2 | 0.00 | 0.00 | 0.00 | 24 | 956.0 |
| 20260503020205 | 20 | 342 | 1.6 | 1.6 | 0.00 | 0.00 | 0.00 | 24 | 956.1 |
| 20260503015702 | 20 | 242 | 1.6 | 3.2 | 0.00 | 0.00 | 0.00 | 23 | 956.0 |
| 20260503015159 | 20 | 324 | 0.0 | 1.6 | 0.00 | 0.00 | 0.00 | 24 | 955.8 |
| 20260503014654 | 20 | 332 | 1.6 | 1.6 | 0.00 | 0.00 | 0.00 | 23 | 956.0 |
| 20260503014153 | 20 | 251 | 4.8 | 4.8 | 0.00 | 0.00 | 0.00 | 22 | 956.1 |
| 20260503013649 | 21 | 314 | 0.0 | 1.6 | 0.00 | 0.00 | 0.00 | 22 | 956.1 |
| 20260503013147 | 21 | 256 | 4.8 | 8.0 | 0.00 | 0.00 | 0.00 | 22 | 956.4 |
| 20260503012644 | 21 | 279 | 4.8 | 4.8 | 0.00 | 0.00 | 0.00 | 23 | 956.3 |
| 20260503012141 | 21 | 335 | 1.6 | 3.2 | 0.00 | 0.00 | 0.00 | 23 | 956.5 |
| 20260503011637 | 20 | 230 | 3.2 | 4.8 | 0.00 | 0.00 | 0.00 | 26 | 956.3 |
| 20260503011135 | 20 | 356 | 0.0 | 0.0 | 0.00 | 0.00 | 0.00 | 27 | 956.2 |
| 20260503010631 | 20 | 129 | 1.6 | 1.6 | 0.00 | 0.00 | 0.00 | 27 | 956.4 |
| 20260503010128 | 21 | 346 | 3.2 | 3.2 | 0.00 | 0.00 | 0.00 | 27 | 956.3 |
| 20260503005625 | 21 | 32 | 0.0 | 1.6 | 0.00 | 0.00 | 0.00 | 26 | 956.4 |
| 20260503005123 | 21 | 237 | 1.6 | 3.2 | 0.00 | 0.00 | 0.00 | 26 | 956.4 |
| 20260503004619 | 21 | 211 | 4.8 | 4.8 | 0.00 | 0.00 | 0.00 | 26 | 956.5 |
| 20260503004118 | 21 | 221 | 1.6 | 1.6 | 0.00 | 0.00 | 0.00 | 26 | 956.5 |
| 20260503003614 | 21 | 311 | 1.6 | 3.2 | 0.00 | 0.00 | 0.00 | 27 | 956.7 |
| 20260503003111 | 21 | 342 | 1.6 | 1.6 | 0.00 | 0.00 | 0.00 | 27 | 956.6 |
| 20260503002608 | 21 | 252 | 1.6 | 3.2 | 0.00 | 0.00 | 0.00 | 27 | 956.7 |
| 20260503002104 | 21 | 294 | 4.8 | 4.8 | 0.00 | 0.00 | 0.00 | 27 | 956.8 |
| 20260503001600 | 22 | 258 | 4.8 | 8.0 | 0.00 | 0.00 | 0.00 | 26 | 957.0 |
| 20260503001058 | 22 | 28 | 0.0 | 0.0 | 0.00 | 0.00 | 0.00 | 26 | 957.1 |
| 20260503000555 | 23 | 233 | 4.8 | 4.8 | 0.00 | 0.00 | 0.00 | 25 | 957.2 |
| 20260503000052 | 22 | 148 | 3.2 | 3.2 | 0.00 | 0.00 | 0.00 | 26 | 957.0 |
| 20260502235549 | 22 | 257 | 1.6 | 1.6 | 0.00 | 0.00 | 0.00 | 26 | 957.6 |
| 20260502235047 | 21 | 263 | 1.6 | 3.2 | 0.00 | 0.00 | 0.00 | 28 | 957.7 |
| 20260502234542 | 21 | 284 | 1.6 | 3.2 | 0.00 | 0.00 | 0.00 | 27 | 957.6 |
| 20260502234041 | 21 | 251 | 1.6 | 3.2 | 0.00 | 0.00 | 0.00 | 27 | 957.7 |
| 20260502233540 | 22 | 228 | 4.8 | 4.8 | 0.00 | 0.00 | 0.00 | 27 | 957.8 |
| 20260502233038 | 23 | 42 | 0.0 | 0.0 | 0.00 | 0.00 | 0.00 | 27 | 957.8 |
| 20260502232534 | 22 | 143 | 3.2 | 4.8 | 0.00 | 0.00 | 0.00 | 26 | 957.9 |
| 20260502232031 | 22 | 212 | 1.6 | 1.6 | 0.00 | 0.00 | 0.00 | 27 | 957.9 |
| 20260502231528 | 22 | 192 | 1.6 | 3.2 | 0.00 | 0.00 | 0.00 | 27 | 958.0 |
| 20260502231026 | 22 | 175 | 3.2 | 3.2 | 0.00 | 0.00 | 0.00 | 27 | 958.1 |
| 20260502230524 | 22 | 233 | 3.2 | 3.2 | 0.00 | 0.00 | 0.00 | 26 | 958.2 |
| 20260502230022 | 22 | 348 | 3.2 | 4.8 | 0.00 | 0.00 | 0.00 | 27 | 958.4 |
| 20260502225517 | 22 | 132 | 1.6 | 3.2 | 0.00 | 0.00 | 0.00 | 25 | 958.5 |
| 20260502225015 | 22 | 243 | 4.8 | 4.8 | 0.00 | 0.00 | 0.00 | 26 | 958.6 |
| 20260502224511 | 22 | 119 | 3.2 | 4.8 | 0.00 | 0.00 | 0.00 | 26 | 958.6 |
| 20260502224008 | 22 | 143 | 1.6 | 1.6 | 0.00 | 0.00 | 0.00 | 26 | 958.7 |
| 20260502223506 | 22 | 210 | 0.0 | 1.6 | 0.00 | 0.00 | 0.00 | 27 | 958.7 |
| 20260502223004 | 22 | 211 | 3.2 | 3.2 | 0.00 | 0.00 | 0.00 | 26 | 958.8 |
| 20260502222501 | 22 | 112 | 1.6 | 3.2 | 0.00 | 0.00 | 0.00 | 26 | 958.9 |
| 20260502221956 | 22 | 153 | 3.2 | 3.2 | 0.00 | 0.00 | 0.00 | 26 | 959.2 |
| 20260502221453 | 22 | 153 | 3.2 | 3.2 | 0.00 | 0.00 | 0.00 | 26 | 959.2 |
| 20260502220950 | 21 | 120 | 1.6 | 3.2 | 0.00 | 0.00 | 0.00 | 27 | 959.3 |
| 20260502220445 | 21 | 257 | 8.0 | 9.7 | 0.00 | 0.00 | 0.00 | 27 | 959.5 |
| 20260502215943 | 21 | 242 | 3.2 | 3.2 | 0.00 | 0.00 | 0.00 | 27 | 959.7 |
| 20260502215440 | 21 | 217 | 4.8 | 8.0 | 0.00 | 0.00 | 0.00 | 28 | 959.4 |
| 20260502214937 | 21 | 172 | 4.8 | 8.0 | 0.00 | 0.00 | 0.00 | 27 | 959.7 |
| 20260502214433 | 21 | 165 | 3.2 | 3.2 | 0.00 | 0.00 | 0.00 | 27 | 959.6 |
| 20260502213931 | 21 | 118 | 4.8 | 4.8 | 0.00 | 0.00 | 0.00 | 26 | 959.7 |
| 20260502213427 | 21 | 276 | 4.8 | 8.0 | 0.00 | 0.00 | 0.00 | 27 | 960.0 |
| 20260502212926 | 21 | 148 | 1.6 | 3.2 | 0.00 | 0.00 | 0.00 | 27 | 959.9 |
| 20260502212425 | 21 | 294 | 4.8 | 8.0 | 0.00 | 0.00 | 0.00 | 27 | 959.9 |
| 20260502211921 | 21 | 181 | 4.8 | 8.0 | 0.00 | 0.00 | 0.00 | 27 | 960.0 |
| 20260502211417 | 20 | 241 | 3.2 | 4.8 | 0.00 | 0.00 | 0.00 | 28 | 960.0 |
| 20260502210914 | 21 | 197 | 3.2 | 3.2 | 0.00 | 0.00 | 0.00 | 28 | 960.2 |
| 20260502210411 | 20 | 111 | 1.6 | 1.6 | 0.00 | 0.00 | 0.00 | 28 | 960.4 |
| 20260502205909 | 20 | 122 | 1.6 | 3.2 | 0.00 | 0.00 | 0.00 | 29 | 960.4 |
| 20260502205404 | 20 | 224 | 1.6 | 3.2 | 0.00 | 0.00 | 0.00 | 28 | 960.5 |
| 20260502204902 | 20 | 258 | 3.2 | 4.8 | 0.00 | 0.00 | 0.00 | 29 | 960.5 |
| 20260502204359 | 20 | 241 | 1.6 | 1.6 | 0.00 | 0.00 | 0.00 | 27 | 960.7 |
| 20260502203856 | 21 | 49 | 0.0 | 1.6 | 0.00 | 0.00 | 0.00 | 28 | 960.7 |
| 20260502203354 | 20 | 248 | 4.8 | 8.0 | 0.00 | 0.00 | 0.00 | 26 | 960.8 |
| 20260502202849 | 20 | 312 | 3.2 | 3.2 | 0.00 | 0.00 | 0.00 | 27 | 960.7 |
| 20260502202347 | 20 | 162 | 3.2 | 3.2 | 0.00 | 0.00 | 0.00 | 28 | 961.0 |
| 20260502201845 | 20 | 132 | 4.8 | 8.0 | 0.00 | 0.00 | 0.00 | 29 | 960.9 |
| 20260502201341 | 20 | 134 | 1.6 | 1.6 | 0.00 | 0.00 | 0.00 | 29 | 961.1 |
| 20260502200837 | 19 | 200 | 1.6 | 1.6 | 0.00 | 0.00 | 0.00 | 29 | 961.3 |
| 20260502200333 | 20 | 46 | 1.6 | 1.6 | 0.00 | 0.00 | 0.00 | 30 | 961.2 |
| 20260502195831 | 19 | 227 | 1.6 | 1.6 | 0.00 | 0.00 | 0.00 | 29 | 961.2 |
| 20260502195327 | 20 | 121 | 1.6 | 3.2 | 0.00 | 0.00 | 0.00 | 30 | 961.4 |
| 20260502194824 | 20 | 355 | 4.8 | 4.8 | 0.00 | 0.00 | 0.00 | 28 | 961.6 |
| 20260502194321 | 20 | 95 | 1.6 | 3.2 | 0.00 | 0.00 | 0.00 | 27 | 961.4 |
| 20260502193817 | 20 | 85 | 3.2 | 4.8 | 0.00 | 0.00 | 0.00 | 29 | 961.5 |
| 20260502193314 | 19 | 78 | 0.0 | 1.6 | 0.00 | 0.00 | 0.00 | 28 | 961.7 |
| 20260502192809 | 18 | 320 | 3.2 | 3.2 | 0.00 | 0.00 | 0.00 | 29 | 961.6 |
| 20260502192307 | 18 | 257 | 4.8 | 4.8 | 0.00 | 0.00 | 0.00 | 29 | 961.8 |
| 20260502191804 | 19 | 169 | 3.2 | 8.0 | 0.00 | 0.00 | 0.00 | 29 | 961.9 |
| 20260502191301 | 19 | 67 | 0.0 | 0.0 | 0.00 | 0.00 | 0.00 | 30 | 962.0 |
| 20260502190758 | 18 | 279 | 4.8 | 8.0 | 0.00 | 0.00 | 0.00 | 30 | 962.1 |
| 20260502190256 | 18 | 187 | 8.0 | 9.7 | 0.00 | 0.00 | 0.00 | 30 | 961.9 |
| 20260502185751 | 18 | 220 | 3.2 | 4.8 | 0.00 | 0.00 | 0.00 | 30 | 962.2 |
| 20260502185247 | 19 | 182 | 1.6 | 3.2 | 0.00 | 0.00 | 0.00 | 30 | 962.1 |
| 20260502184744 | 18 | 55 | 0.0 | 0.0 | 0.00 | 0.00 | 0.00 | 31 | 962.5 |
| 20260502184240 | 18 | 209 | 1.6 | 3.2 | 0.00 | 0.00 | 0.00 | 30 | 962.6 |
| 20260502183737 | 18 | 44 | 0.0 | 0.0 | 0.00 | 0.00 | 0.00 | 30 | 962.5 |
| 20260502183233 | 18 | 55 | 0.0 | 1.6 | 0.00 | 0.00 | 0.00 | 31 | 962.7 |
| 20260502182728 | 18 | 233 | 1.6 | 1.6 | 0.00 | 0.00 | 0.00 | 31 | 962.7 |
| 20260502182224 | 18 | 332 | 3.2 | 4.8 | 0.00 | 0.00 | 0.00 | 30 | 962.6 |
| 20260502181721 | 18 | 120 | 0.0 | 0.0 | 0.00 | 0.00 | 0.00 | 31 | 962.7 |
| 20260502181220 | 18 | 68 | 1.6 | 1.6 | 0.00 | 0.00 | 0.00 | 32 | 962.9 |
| 20260502180717 | 18 | 124 | 1.6 | 3.2 | 0.00 | 0.00 | 0.00 | 31 | 963.1 |
| 20260502180214 | 17 | 343 | 1.6 | 3.2 | 0.00 | 0.00 | 0.00 | 33 | 963.2 |
| 20260502170138 | 16 | 217 | 1.6 | 1.6 | 0.00 | 0.00 | 0.00 | 34 | 963.9 |
| 20260502164125 | 16 | 120 | 1.6 | 1.6 | 0.00 | 0.00 | 0.00 | 36 | 964.1 |
| 20260502163621 | 16 | 160 | 0.0 | 1.6 | 0.00 | 0.00 | 0.00 | 36 | 964.0 |
| 20260502163117 | 15 | 226 | 1.6 | 1.6 | 0.00 | 0.00 | 0.00 | 35 | 964.2 |
| 20260502162614 | 15 | 188 | 4.8 | 4.8 | 0.00 | 0.00 | 0.00 | 37 | 964.0 |
| 20260502162111 | 15 | 37 | 0.0 | 0.0 | 0.00 | 0.00 | 0.00 | 40 | 964.1 |
| 20260502161608 | 15 | 59 | 0.0 | 0.0 | 0.00 | 0.00 | 0.00 | 40 | 964.2 |
| 20260502161106 | 15 | 25 | 0.0 | 0.0 | 0.00 | 0.00 | 0.00 | 38 | 964.2 |
| 20260502160603 | 15 | 57 | 0.0 | 1.6 | 0.00 | 0.00 | 0.00 | 38 | 964.1 |
| 20260502152016 | 12 | 44 | 0.0 | 0.0 | 0.00 | 0.00 | 0.00 | 48 | 964.6 |
| 20260502151513 | 11 | 244 | 0.0 | 0.0 | 0.00 | 0.00 | 0.00 | 47 | 964.6 |
| 20260502151010 | 11 | 69 | 0.0 | 1.6 | 0.00 | 0.00 | 0.00 | 50 | 964.8 |
| 20260502150508 | 10 | 87 | 0.0 | 0.0 | 0.00 | 0.00 | 0.00 | 52 | 964.9 |
| 20260502130353 | 1 | 37 | 0.0 | 0.0 | 0.00 | 0.00 | 0.00 | 93 | 964.8 |
| 20260502123336 | 1 | 39 | 0.0 | 0.0 | 0.00 | 0.00 | 0.00 | 93 | 964.8 |
| 20260502122833 | 0 | 39 | 0.0 | 0.0 | 0.00 | 0.00 | 0.00 | 93 | 964.7 |
| 20260502122328 | 0 | 39 | 0.0 | 0.0 | 0.00 | 0.00 | 0.00 | 92 | 964.6 |
| 20260502121827 | 0 | 38 | 0.0 | 0.0 | 0.00 | 0.00 | 0.00 | 92 | 964.7 |
| 20260502121324 | 0 | 39 | 0.0 | 0.0 | 0.00 | 0.00 | 0.00 | 92 | 964.7 |
| 20260502120821 | 0 | 39 | 0.0 | 0.0 | 0.00 | 0.00 | 0.00 | 92 | 964.7 |
| 20260502120317 | 1 | 39 | 0.0 | 0.0 | 0.00 | 0.00 | 0.00 | 91 | 964.7 |
| 20260502115815 | 1 | 39 | 0.0 | 0.0 | 0.00 | 0.00 | 0.00 | 91 | 964.7 |
| 20260502115312 | 1 | 39 | 0.0 | 0.0 | 0.00 | 0.00 | 0.00 | 91 | 964.5 |
| 20260502114808 | 1 | 37 | 0.0 | 0.0 | 0.00 | 0.00 | 0.00 | 91 | 964.7 |
| 20260502114305 | 1 | 42 | 0.0 | 0.0 | 0.00 | 0.00 | 0.00 | 90 | 964.6 |
| 20260502113802 | 1 | 42 | 0.0 | 0.0 | 0.00 | 0.00 | 0.00 | 90 | 964.5 |
| 20260502113300 | 1 | 45 | 0.0 | 0.0 | 0.00 | 0.00 | 0.00 | 90 | 964.5 |
| 20260502112758 | 1 | 43 | 0.0 | 0.0 | 0.00 | 0.00 | 0.00 | 89 | 964.5 |
| 20260502112255 | 1 | 43 | 0.0 | 0.0 | 0.00 | 0.00 | 0.00 | 88 | 964.6 |
| 20260502111752 | 1 | 43 | 0.0 | 0.0 | 0.00 | 0.00 | 0.00 | 88 | 964.6 |
| 20260502111249 | 1 | 43 | 0.0 | 0.0 | 0.00 | 0.00 | 0.00 | 88 | 964.6 |
| 20260502110747 | 2 | 48 | 0.0 | 0.0 | 0.00 | 0.00 | 0.00 | 88 | 964.5 |
| 20260502110244 | 1 | 38 | 0.0 | 0.0 | 0.00 | 0.00 | 0.00 | 88 | 964.7 |
| 20260502105743 | 1 | 39 | 0.0 | 0.0 | 0.00 | 0.00 | 0.00 | 87 | 964.6 |
| 20260502105238 | 1 | 38 | 0.0 | 0.0 | 0.00 | 0.00 | 0.00 | 87 | 964.5 |
| 20260502104737 | 1 | 42 | 0.0 | 0.0 | 0.00 | 0.00 | 0.00 | 86 | 964.5 |
| 20260502104233 | 2 | 42 | 0.0 | 0.0 | 0.00 | 0.00 | 0.00 | 86 | 964.7 |
| 20260502103731 | 2 | 43 | 0.0 | 0.0 | 0.00 | 0.00 | 0.00 | 86 | 964.6 |
| 20260502103229 | 2 | 38 | 0.0 | 0.0 | 0.00 | 0.00 | 0.00 | 86 | 964.4 |
| 20260502102725 | 2 | 38 | 0.0 | 0.0 | 0.00 | 0.00 | 0.00 | 86 | 964.4 |
| 20260502102222 | 2 | 38 | 0.0 | 0.0 | 0.00 | 0.00 | 0.00 | 86 | 964.5 |
| 20260502101720 | 2 | 38 | 0.0 | 0.0 | 0.00 | 0.00 | 0.00 | 85 | 964.5 |
| 20260502101218 | 2 | 41 | 0.0 | 0.0 | 0.00 | 0.00 | 0.00 | 85 | 964.4 |
| 20260502100716 | 2 | 40 | 0.0 | 0.0 | 0.00 | 0.00 | 0.00 | 84 | 964.4 |
| 20260502100214 | 2 | 37 | 0.0 | 0.0 | 0.00 | 0.00 | 0.00 | 84 | 964.4 |
| 20260502091148 | 3 | 40 | 0.0 | 0.0 | 0.00 | 0.00 | 0.00 | 82 | 964.6 |
| 20260502090645 | 3 | 50 | 0.0 | 0.0 | 0.00 | 0.00 | 0.00 | 82 | 964.5 |
| 20260502090142 | 3 | 49 | 0.0 | 0.0 | 0.00 | 0.00 | 0.00 | 83 | 964.4 |
| 20260502080104 | 4 | 45 | 0.0 | 0.0 | 0.00 | 0.00 | 0.00 | 81 | 964.3 |
| 20260502071038 | 5 | 45 | 0.0 | 0.0 | 0.00 | 0.00 | 0.00 | 81 | 964.2 |
| 20260502070535 | 5 | 46 | 0.0 | 0.0 | 0.00 | 0.00 | 0.00 | 81 | 964.1 |
| 20260502070033 | 5 | 49 | 0.0 | 0.0 | 0.00 | 0.00 | 0.00 | 81 | 964.1 |
| 20260502065532 | 5 | 42 | 0.0 | 0.0 | 0.00 | 0.00 | 0.00 | 80 | 964.0 |
| 20260502065029 | 5 | 42 | 0.0 | 0.0 | 0.00 | 0.00 | 0.00 | 79 | 964.0 |
| 20260502064527 | 5 | 42 | 0.0 | 0.0 | 0.00 | 0.00 | 0.00 | 79 | 964.2 |
| 20260502064018 | 5 | 38 | 0.0 | 0.0 | 0.00 | 0.00 | 0.00 | 78 | 964.0 |
| 20260502063516 | 6 | 38 | 0.0 | 0.0 | 0.00 | 0.00 | 0.00 | 77 | 963.9 |
| 20260502063014 | 6 | 39 | 0.0 | 0.0 | 0.00 | 0.00 | 0.00 | 76 | 964.2 |
| 20260502062510 | 6 | 39 | 0.0 | 0.0 | 0.00 | 0.00 | 0.00 | 74 | 964.0 |
| 20260502062009 | 7 | 49 | 0.0 | 0.0 | 0.00 | 0.00 | 0.00 | 73 | 963.9 |
| 20260502061506 | 7 | 49 | 0.0 | 0.0 | 0.00 | 0.00 | 0.00 | 73 | 964.0 |
| 20260502061003 | 7 | 58 | 0.0 | 0.0 | 0.00 | 0.00 | 0.00 | 73 | 963.9 |
| 20260502060458 | 7 | 44 | 0.0 | 0.0 | 0.00 | 0.00 | 0.00 | 73 | 963.9 |
| 20260502055955 | 7 | 47 | 0.0 | 0.0 | 0.00 | 0.00 | 0.00 | 73 | 963.9 |
| 20260502055452 | 7 | 39 | 0.0 | 0.0 | 0.00 | 0.00 | 0.00 | 72 | 964.0 |
| 20260502054946 | 7 | 36 | 0.0 | 0.0 | 0.00 | 0.00 | 0.00 | 71 | 963.9 |
| 20260502054444 | 7 | 35 | 0.0 | 0.0 | 0.00 | 0.00 | 0.00 | 71 | 964.1 |
| 20260502053941 | 7 | 22 | 0.0 | 0.0 | 0.00 | 0.00 | 0.00 | 71 | 964.0 |